Location: Champs
(48.8539°N, 2.6040°E)
Time: 09:31:17
(UTC+00:00)

USA 308 - Pass Details

Date: 01 June 2022
Orbit: 549 x 558 km, 54.0° (Epoch: 14 June)

Event Time Altitude Azimuth Distance (km) Brightness Sun altitude
Rises 01:52:28 0° 283° (WNW) 2,738 6.2 -13.8°
Reaches altitude 10° 01:54:49 10° 291° (WNW) 1,845 5.4 -13.6°
Maximum altitude 01:58:48 40° 2° (N) 830 4.2 -13.3°
Drops below altitude 10° 02:02:46 10° 74° (ENE) 1,850 6.2 -12.9°
Sets 02:05:08 0° 81° (E) 2,746 7.0 -12.7°
